Le nostre stazioni meteo in Italia

Pubblicità
Il mio iltempo24.it
Gioia Del Colle, Italia (16312): Temperatura & dewpoint: 07.11.2019 00:00:00 - 13.11.2019 00:00:00 (CET)Gioia Del Colle, Italia (16312): velocità del vento: 07.11.2019 00:00:00 - 13.11.2019 00:00:00 (CET)Gioia Del Colle, Italia (16312): direzione del vento: 07.11.2019 00:00:00 - 13.11.2019 00:00:00 (CET)Gioia Del Colle, Italia (16312): reduced air pressure: 07.11.2019 00:00:00 - 13.11.2019 00:00:00 (CET)Gioia Del Colle, Italia (16312): visibility: 07.11.2019 00:00:00 - 13.11.2019 00:00:00 (CET)
Data & Tempo tt [°C] td [°C] ff [km/h] ff [kn] dd ppp [hPa] vv [km]
13.11.2019 00:00:00 - - - - - - -
12.11.2019 23:00:00 14,0 11,0 41 22 SSE - 3,5
12.11.2019 22:00:00 14,0 10,6 46 25 SSE 997,8 3,5
12.11.2019 21:00:00 12,0 12,0 46 25 SSE - 3,5
12.11.2019 20:00:00 14,0 13,0 42 23 SE - 6
12.11.2019 19:00:00 14,8 10,8 50 27 SSE 998,4 7
12.11.2019 18:00:00 15,0 11,0 54 29 SSE - 7
12.11.2019 17:00:00 15,0 11,0 52 28 SSE - 8
12.11.2019 16:00:00 15,6 9,0 52 28 SSE 998,1 8
12.11.2019 15:00:00 16,0 11,0 59 32 SSE - 8
12.11.2019 14:00:00 16,0 11,0 61 33 SSE - 7
12.11.2019 13:00:00 15,4 14,1 48 26 SSE 996,7 6
12.11.2019 12:00:00 16,0 13,0 55 30 SSE - 6
12.11.2019 11:00:00 15,0 14,0 54 29 SSE - 6
12.11.2019 10:00:00 17,0 16,4 59 32 SSE 994,7 4,0
12.11.2019 09:00:00 17,0 16,0 63 34 SE - 4,5
12.11.2019 08:00:00 16,0 15,0 46 25 ESE - 5
12.11.2019 07:00:00 14,8 13,2 28 15 ESE 998,4 5
12.11.2019 06:00:00 14,0 14,0 42 23 SE - 2,5
12.11.2019 05:00:00 14,0 14,0 31 17 SE - 2,5
12.11.2019 04:00:00 14,2 14,2 46 25 SE 1001,4 2,5
12.11.2019 03:00:00 14,0 14,0 55 30 ESE - 3,2
12.11.2019 02:00:00 13,0 13,0 31 17 E - 3,5
12.11.2019 01:00:00 13,6 12,8 21 11 E 1006,3 5
12.11.2019 00:00:00 14,0 12,0 16 9 E - 7
11.11.2019 23:00:00 15,0 11,0 21 11 ESE - 10
11.11.2019 22:00:00 14,6 10,8 26 14 SE 1008,4 10
11.11.2019 21:00:00 14,0 12,0 18 10 ESE - 10
11.11.2019 20:00:00 14,0 11,0 15 8 E - 10
11.11.2019 19:00:00 14,0 11,5 16 9 ESE 1009,8 9
11.11.2019 18:00:00 14,0 12,0 15 8 ESE - 7
11.11.2019 17:00:00 14,0 14,0 11 6 SE - 7
11.11.2019 16:00:00 16,4 11,8 16 9 ESE 1010,2 10
11.11.2019 15:00:00 17,0 11,0 24 13 SSE - 10
11.11.2019 14:00:00 18,0 10,0 26 14 SSE - 10
11.11.2019 13:00:00 17,2 11,0 21 11 SE 1011,8 10
11.11.2019 12:00:00 18,0 11,0 26 14 SSE - 10
11.11.2019 11:00:00 17,0 11,0 28 15 SSE - 10
11.11.2019 10:00:00 16,0 11,2 24 13 SSE 1013,6 10
11.11.2019 09:00:00 15,0 11,0 21 11 SSE - 10
11.11.2019 08:00:00 13,0 10,0 18 10 SE - 10
11.11.2019 07:00:00 7,0 7,0 4 2 N 1014,7 7
11.11.2019 06:00:00 6,0 6,0 4 2 NNO - 10
11.11.2019 05:00:00 7,0 7,0 2 1 N - 10
11.11.2019 04:00:00 7,6 7,6 2 1 ONO 1015,3 10
11.11.2019 03:00:00 9,0 9,0 2 1 SSO - 10
11.11.2019 02:00:00 8,0 8,0 5 3 ONO - 10
11.11.2019 01:00:00 9,0 9,0 2 1 NNE 1014,4 10
11.11.2019 00:00:00 11,0 10,0 8 4 E - 10
10.11.2019 23:00:00 11,0 10,0 5 3 ESE - 10
10.11.2019 22:00:00 11,8 10,2 9 5 S 1013,8 10
10.11.2019 21:00:00 13,0 10,0 15 8 SSE - 10
10.11.2019 20:00:00 13,0 9,0 15 8 SSE - 10
10.11.2019 19:00:00 13,2 8,5 15 8 SE 1012,5 10
10.11.2019 18:00:00 14,0 9,0 11 6 SE - 10
10.11.2019 17:00:00 14,0 8,0 15 8 SSE - 10
10.11.2019 16:00:00 15,2 7,0 15 8 SSE 1010,6 10
10.11.2019 15:00:00 16,0 5,0 9 5 SSE - 10
10.11.2019 14:00:00 17,0 5,0 13 7 S - 10
10.11.2019 13:00:00 16,2 6,1 15 8 SO 1008,9 10
10.11.2019 12:00:00 16,0 7,0 13 7 SSE - 10
10.11.2019 11:00:00 16,0 7,0 15 8 S - 10
10.11.2019 10:00:00 14,0 6,6 15 8 SSE 1008,9 10
10.11.2019 09:00:00 12,0 8,0 11 6 SSE - 10
10.11.2019 08:00:00 10,0 9,0 11 6 S - 10
10.11.2019 07:00:00 9,2 9,1 4 2 - 1008,1 9
10.11.2019 06:00:00 9,0 8,0 15 8 SSE - 7
10.11.2019 05:00:00 9,0 8,0 16 9 S - 7
10.11.2019 04:00:00 9,0 8,1 15 8 S 1007,5 7
10.11.2019 03:00:00 9,0 8,0 13 7 SSE - 7
10.11.2019 02:00:00 9,0 9,0 13 7 S - 6
10.11.2019 01:00:00 10,0 10,0 9 5 S 1007,1 6
10.11.2019 00:00:00 11,0 11,0 2 1 - - 5
09.11.2019 23:00:00 12,0 12,0 5 3 SO - 4,5
09.11.2019 22:00:00 11,4 11,4 5 3 SO 1008,1 4,5
09.11.2019 21:00:00 12,0 12,0 5 3 NNE - 7
09.11.2019 20:00:00 12,0 12,0 2 1 NE - 6
09.11.2019 19:00:00 12,2 12,2 9 5 NNO 1008,9 6
09.11.2019 18:00:00 15,0 13,0 9 5 S - 6
09.11.2019 17:00:00 16,0 10,0 18 10 SSE - 10
09.11.2019 16:00:00 17,4 11,9 13 7 SSE 1008,1 10
09.11.2019 15:00:00 18,0 10,0 26 14 SSE - 10
09.11.2019 14:00:00 19,0 8,0 22 12 S - 10
09.11.2019 13:00:00 19,4 8,1 22 12 S 1009,6 10
09.11.2019 12:00:00 19,0 8,0 15 8 S - 10
09.11.2019 11:00:00 18,0 10,0 16 9 SSO - 10
09.11.2019 10:00:00 16,0 11,6 15 8 S 1011,3 10
09.11.2019 09:00:00 14,0 11,0 8 4 S - 10
09.11.2019 08:00:00 13,0 12,0 9 5 S - 10
09.11.2019 07:00:00 11,0 10,2 9 5 SE 1011,1 10
09.11.2019 06:00:00 12,0 11,0 11 6 SSE - 10
09.11.2019 05:00:00 12,0 10,0 16 9 SSE - 10
09.11.2019 04:00:00 11,0 9,7 13 7 S 1010,7 10
09.11.2019 03:00:00 11,0 10,0 15 8 SSE - 10
09.11.2019 02:00:00 12,0 10,0 11 6 S - 10
09.11.2019 01:00:00 11,2 10,0 13 7 SSE 1011,0 10
09.11.2019 00:00:00 12,0 10,0 4 2 SSO - 10
08.11.2019 23:00:00 12,0 10,0 11 6 SSE - 10
08.11.2019 22:00:00 13,0 10,4 9 5 SSO 1010,7 10
08.11.2019 21:00:00 14,0 11,0 13 7 SSE - 10
08.11.2019 20:00:00 15,0 10,0 13 7 S - 10
08.11.2019 19:00:00 15,2 11,8 18 10 SSE 1009,4 10
08.11.2019 18:00:00 16,0 12,0 13 7 S - 10
08.11.2019 17:00:00 16,0 12,0 21 11 SSE - 10
08.11.2019 16:00:00 17,2 11,7 28 15 S 1008,4 10
08.11.2019 15:00:00 17,0 11,0 31 17 SSE - 10
08.11.2019 14:00:00 18,0 8,0 29 16 SSE - 10
08.11.2019 13:00:00 18,2 7,6 29 16 SSE 1008,1 10
08.11.2019 12:00:00 18,0 7,0 29 16 S - 10
08.11.2019 11:00:00 17,0 7,0 21 11 SSO - 10
08.11.2019 10:00:00 16,2 6,4 16 9 S 1008,8 10
08.11.2019 09:00:00 14,0 8,0 8 4 SSE - 10
08.11.2019 08:00:00 10,0 8,0 4 2 N - 10
08.11.2019 07:00:00 8,2 6,7 11 6 O 1008,9 10
08.11.2019 06:00:00 8,0 8,0 0 0 N - 10
08.11.2019 05:00:00 9,0 9,0 4 2 NNO - 10
08.11.2019 04:00:00 10,0 10,0 5 3 O 1007,8 10
08.11.2019 03:00:00 10,0 10,0 4 2 ONO - 10
08.11.2019 02:00:00 11,0 11,0 5 3 O - 10
08.11.2019 01:00:00 11,4 10,6 9 5 NO 1007,6 10
08.11.2019 00:00:00 12,0 10,0 13 7 NO - 10
07.11.2019 23:00:00 13,0 10,0 11 6 NNO - 10
07.11.2019 22:00:00 13,0 11,4 16 9 NNO 1007,7 10
07.11.2019 21:00:00 12,0 12,0 11 6 NO - 10
07.11.2019 20:00:00 13,0 12,0 11 6 NO - 10
07.11.2019 19:00:00 13,4 11,5 9 5 NNO 1008,1 10
07.11.2019 18:00:00 14,0 11,0 9 5 N - 10
07.11.2019 17:00:00 15,0 10,0 9 5 NNE - 10
07.11.2019 16:00:00 15,0 9,1 15 8 NNE 1007,2 10
07.11.2019 15:00:00 16,0 7,0 15 8 NNE - 10
07.11.2019 14:00:00 17,0 8,0 15 8 N - 10
07.11.2019 13:00:00 17,2 9,9 4 2 N 1006,9 10
07.11.2019 12:00:00 17,0 10,0 8 4 S - 10
07.11.2019 11:00:00 17,0 11,0 5 3 SSE - 10
07.11.2019 10:00:00 16,2 10,5 4 2 N 1007,7 10
07.11.2019 09:00:00 14,0 11,0 2 1 - - 10
07.11.2019 08:00:00 13,0 12,0 2 1 - - 10
07.11.2019 07:00:00 12,6 11,7 2 1 - 1007,1 10
07.11.2019 06:00:00 13,0 13,0 8 4 ONO - 8
07.11.2019 05:00:00 13,0 13,0 4 2 - - 8
07.11.2019 04:00:00 13,0 13,0 5 3 ESE 1006,7 8
07.11.2019 03:00:00 13,0 13,0 5 3 SSE - 8
07.11.2019 02:00:00 13,0 12,0 5 3 ENE - 8
07.11.2019 01:00:00 13,2 12,4 8 4 SE 1006,8 8
07.11.2019 00:00:00 13,0 13,0 4 2 - - 8

tt = Temperatura
td = dewpoint
ff = velocità del vento
dd = direzione del vento
ppp = reduced air pressure
vv = visibility

Stazioni seguenti

WeatherPro
AMSI
MeteoEarth